Weather History for Concordia, KS

Change the Weather History Date:

Monday, January 30, 2012

  Actual Average Record
Temperature  
Mean Temperature 55 °F 29 °F  
Max Temperature 70 °F 40 °F 70 °F (2012)
Min Temperature 40 °F 19 °F -11 °F (1918)
Degree Days  
Heating Degree Days 10 36  
Month to date heating degree days 930 1094  
Since 1 July heating degree days 2899 3271  
Cooling Degree Days 0 0  
Month to date cooling degree days 0 0  
Year to date cooling degree days 0 0  
Growing Degree Days 4 (Base 50)    
Moisture  
Dew Point 27 °F    
Average Humidity 47    
Maximum Humidity 76    
Minimum Humidity 17    
Precipitation  
Precipitation 0.00 in 0.02 in 0.55 in (1983)
Month to date precipitation 0.32 0.55  
Year to date precipitation 0.32 0.55  
Snow  
Snow 0.00 in 0.20 in 6.00 in (1983)
Month to date snowfall 3.1 5.5  
Year to date snowfall 3.1 5.5  
Since 1 July snowfall 4.0 12.0  
Snow Depth 0.00 in    
Sea Level Pressure  
Sea Level Pressure 29.84 in    
Wind  
Wind Speed 15 mph (SSW)    
Max Wind Speed 23 mph    
Max Gust Speed 30 mph    
Visibility 10 miles    
Events      
T = Trace of Precipitation, MM = Missing Value Source: NWS Daily Summary

Daily Weather History Graph

Daily Weather History Graph

Search for Another Location

Airport:

Trip Planner

Search our weather history database for the weather conditions in past years. The results will help you decide how hot, cold, wet, or windy it might be!

Date:

Astronomy

Jan. 30, 2012 Rise Set
Actual Time 7:40 AM CST 5:47 PM CST
Civil Twilight 7:11 AM CST 6:16 PM CST
Nautical Twilight 6:39 AM CST 6:48 PM CST
Astronomical Twilight 6:07 AM CST 7:20 PM CST
Moon 11:05 AM CST (1/30) 12:31 AM CST (1/30)
Length of Visible Light 11h 04m
Length of Day
10h 07m
Waxing Crescent, 46% of the Moon is Illuminated
Jan 30
Waxing Crescent
Jan 30
First Quarter
Feb 7
Full
Feb 14
Last Quarter
Feb 21
New

Hourly Weather History & Observations

Time (CST) Temp. Windchill Dew Point Humidity Pressure Visibility Wind Dir Wind Speed Gust Speed Precip Events Conditions
12:55 AM 46.0 °F 40.6 °F 23.0 °F 40% 29.96 in 10.0 mi SW 11.5 mph 20.7 mph N/A   Clear
1:55 AM 45.0 °F 38.5 °F 24.1 °F 44% 29.94 in 10.0 mi SW 13.8 mph - N/A   Clear
2:55 AM 44.1 °F 38.6 °F 24.1 °F 45% 29.92 in 10.0 mi SW 10.4 mph - N/A   Clear
3:55 AM 44.1 °F 37.4 °F 21.9 °F 42% 29.90 in 10.0 mi SW 13.8 mph - N/A   Clear
4:55 AM 44.1 °F 37.1 °F 19.9 °F 38% 29.89 in 10.0 mi SW 15.0 mph - N/A   Clear
5:55 AM 42.1 °F 35.7 °F 19.0 °F 40% 29.90 in 10.0 mi SW 11.5 mph - N/A   Clear
6:55 AM 42.1 °F 33.6 °F 18.0 °F 38% 29.90 in 10.0 mi SW 18.4 mph - N/A   Clear
7:55 AM 39.9 °F 32.1 °F 18.0 °F 41% 29.91 in 10.0 mi SW 13.8 mph - N/A   Clear
8:55 AM 44.1 °F 35.4 °F 19.0 °F 37% 29.88 in 10.0 mi SSW 21.9 mph - N/A   Clear
9:55 AM - - - N/A% 29.87 in 10.0 mi North - - N/A   Unknown
10:55 AM - - - N/A% 29.88 in 10.0 mi North - - N/A   Unknown
11:55 AM 54.0 °F - 21.9 °F 29% 29.87 in - SW 8.1 mph - N/A   Clear
1:55 PM 62.6 °F - 26.6 °F 26% 29.79 in 10.0 mi South 12.7 mph - N/A   Clear
2:55 PM 68.0 °F - 23.0 °F 18% 29.75 in 10.0 mi SSW 9.2 mph - N/A   Clear
3:55 PM 64.9 °F - 28.0 °F 25% 29.75 in 10.0 mi South 16.1 mph 23.0 mph N/A   Clear
4:55 PM 61.0 °F - 30.9 °F 32% 29.76 in 10.0 mi South 15.0 mph - N/A   Clear
5:55 PM 55.9 °F - 30.0 °F 37% 29.77 in 10.0 mi South 13.8 mph - N/A   Clear
6:55 PM 54.0 °F - 33.1 °F 45% 29.79 in 10.0 mi South 18.4 mph - N/A   Clear
7:55 PM 51.1 °F - 36.0 °F 56% 29.80 in 10.0 mi South 17.3 mph - N/A   Clear
8:55 PM 51.1 °F - 36.0 °F 56% 29.79 in 10.0 mi South 21.9 mph 28.8 mph N/A   Clear
9:55 PM 48.9 °F - 36.0 °F 61% 29.78 in 10.0 mi South 20.7 mph 29.9 mph N/A   Clear
10:55 PM 46.9 °F - 39.0 °F 74% 29.77 in 10.0 mi South 20.7 mph 28.8 mph N/A   Clear
11:55 PM 46.0 °F 39.3 °F 39.0 °F 76% 29.77 in 10.0 mi South 16.1 mph - N/A   Clear